Time,TemperatureF,DewpointF,PressureIn,WindDirection,WindDirectionDegrees,WindSpeedMPH,WindSpeedGustMPH,Humidity,HourlyPrecipIn,Conditions,Clouds,dailyrainin,SolarRadiationWatts/m^2,SoftwareType,DateUTC
2013-01-26 00:00:00,22.0,20.0,-100.00,WSW,247,1.0,-999.0,90,-99.99,,,-99.99,0.000000,,2013-01-26 05:00:00,
2013-01-26 00:42:00,22.0,20.0,-100.00,WSW,247,1.0,-999.0,90,-99.99,,,-99.99,0.000000,,2013-01-26 05:42:00,
2013-01-26 00:53:00,22.0,20.0,-100.00,WSW,247,1.0,-999.0,90,-99.99,,,-99.99,0.000000,,2013-01-26 05:53:00,
2013-01-26 03:00:00,23.0,17.0,-100.00,NW,315,6.0,-999.0,78,-99.99,,,-99.99,0.000000,,2013-01-26 08:00:00,
2013-01-26 03:42:00,23.0,17.0,-100.00,NW,315,6.0,-999.0,78,-99.99,,,-99.99,0.000000,,2013-01-26 08:42:00,
2013-01-26 03:54:00,23.0,17.0,-100.00,NW,315,6.0,-999.0,78,-99.99,,,-99.99,0.000000,,2013-01-26 08:54:00,
2013-01-26 06:00:00,22.0,16.0,-100.00,NW,315,7.0,-999.0,76,-99.99,,,-99.99,0.000000,,2013-01-26 11:00:00,
2013-01-26 06:42:00,22.0,16.0,-100.00,NW,315,7.0,-999.0,76,-99.99,,,-99.99,0.000000,,2013-01-26 11:42:00,
2013-01-26 06:52:00,22.0,16.0,-100.00,NW,315,7.0,-999.0,76,-99.99,,,-99.99,0.000000,,2013-01-26 11:52:00,
2013-01-26 09:00:00,21.0,15.0,-100.00,NW,315,2.0,-999.0,77,-99.99,,,-99.99,12.760000,,2013-01-26 14:00:00,
2013-01-26 09:43:00,21.0,15.0,-100.00,NW,315,2.0,-999.0,77,-99.99,,,-99.99,12.760000,,2013-01-26 14:43:00,
2013-01-26 09:53:00,21.0,15.0,-100.00,NW,315,2.0,-999.0,77,-99.99,,,-99.99,12.760000,,2013-01-26 14:53:00,
2013-01-26 15:00:00,26.0,17.0,-100.00,NW,315,4.0,-999.0,70,-99.99,,,-99.99,198.360001,,2013-01-26 20:00:00,
2013-01-26 15:42:00,26.0,17.0,-100.00,NW,315,4.0,-999.0,70,-99.99,,,-99.99,198.360001,,2013-01-26 20:42:00,
2013-01-26 15:52:00,26.0,17.0,-100.00,NW,315,4.0,-999.0,70,-99.99,,,-99.99,198.360001,,2013-01-26 20:52:00,
2013-01-26 18:00:00,25.0,14.0,-100.00,NW,315,3.0,-999.0,63,-99.99,,,-99.99,11.600000,,2013-01-26 23:00:00,
2013-01-26 18:42:00,25.0,14.0,-100.00,NW,315,3.0,-999.0,63,-99.99,,,-99.99,11.600000,,2013-01-26 23:42:00,
2013-01-26 18:52:00,25.0,14.0,-100.00,NW,315,3.0,-999.0,63,-99.99,,,-99.99,11.600000,,2013-01-26 23:52:00,
2013-01-26 21:00:00,20.0,14.0,-100.00,SE,135,3.0,-999.0,79,-99.99,,,-99.99,0.000000,,2013-01-27 02:00:00,
2013-01-26 21:42:00,20.0,14.0,-100.00,SE,135,3.0,-999.0,79,-99.99,,,-99.99,0.000000,,2013-01-27 02:42:00,
2013-01-26 21:52:00,20.0,14.0,-100.00,SE,135,3.0,-999.0,79,-99.99,,,-99.99,0.000000,,2013-01-27 02:52:00,